カタログに戻る

STARLINK-35918

運用中通信VLEO
NORAD 66643·PAYLOAD·🇺🇸 United States

打ち上げ Nov 23, 2025 から Vandenberg Space Force Base

Loading…

次のパス (今後24時間)

TLE

最新Source: CelesTrak SupGP

元期: Sep 15, 2026, 03:41 UTC

1 66643C 25271AC  26258.15395833  .00061331  00000+0  18112-2 0  2588
2 66643  53.1599 334.8770 0001281  82.1999 332.0047 15.34374531    17

AllMySatでSTARLINK-35918をリアルタイム追跡

Download on the App Store